Regional Weather Roundup
Issued by NWS Wakefield, VA

Home | Current Version | Previous Version | Graphics & Text | Print | Product List | Glossary On
Versions: 1 2 3 4 5 6 7 8 9 10 11 12 13 14 15 16 17 18 19 20 21 22 23 24 25 26 27 28 29 30 31 32 33 34 35 36 37 38 39 40 41 42 43 44 45 46 47 48 49 50
000
ASUS41 KAKQ 251415
RWRAKQ

REGIONAL WEATHER ROUNDUP
NATIONAL WEATHER SERVICE WAKEFIELD VA
1000 AM EDT THU AUG 25 2016

Note: "fair" indicates few or no clouds below 12,000 feet with no
significant weather and/or obstructions to visibility. * = Denotes
station may not report precipitation (e.g., rain,snow,etc.),
thunder or fog.

VAZ042-051-052>054-056-251500-
NORTHERN VIRGINIA

CITY           SKY/WX    TMP DP  RH WIND       PRES   REMARKS
WASH NATIONAL  CLOUDY    80  69  69 S10       30.11S
DULLES         PTSUNNY   77  66  68 S8        30.11S
FORT BELVOIR   MOSUNNY   78  67  67 S6        30.11S
QUANTICO       CLOUDY    79  67  66 SW9       30.11F
FREDERICKSBRG* MOSUNNY   78  68  71 S7        30.11S
STAFFORD*      PTSUNNY   78  67  69 SW6       30.15F
WARRENTON      CLOUDY    78  65  63 S6        30.11F
CULPEPER*      MOSUNNY   77  70  79 SW5       30.12S
MANASSAS*      SUNNY     77  70  78 MISG      30.11S
LEESBURG*      MOSUNNY   77  70  78 SW5       30.11F
WINCHESTER     CLOUDY    79  68  69 SW5       30.10F
FRONT ROYAL*   FAIR      77  70  78 S8G16     30.10F
LURAY*         FAIR      79  72  78 SW9       30.13S
$$

VAZ048-049-060>072-079>083-251500-
CENTRAL AND SOUTH CENTRAL VIRGINIA

CITY           SKY/WX    TMP DP  RH WIND       PRES   REMARKS
RICHMOND       PTSUNNY   80  64  58 SW9       30.15S
CHESTERFIELD*  FAIR      81  55  41 SW6       30.17S
PETERSBURG*    MOSUNNY   81  65  58 SW5       30.17R
HANOVER        MOSUNNY   78  63  59 SW9       30.16S
TAPPAHANNOCK*  MOSUNNY   79  69  71 S8        30.15S
QUINTON*       FAIR      79  67  68 SW5       30.15S
CHARLOTTSVILLE MOSUNNY   77  69  76 S6        30.13S
GORDONSVILLE*  FAIR      75  70  83 S6        30.12S
ORANGE*          N/A     75  72  88 CALM      30.14S
LOUISA*        CLOUDY    79  72  78 SW5       30.13S
BUMPASS*       FAIR      77  68  73 SW8       30.13F
FARMVILLE*     PTSUNNY   78  69  73 S8        30.13F
CREWE*         FAIR      78  67  68 S5        30.16S
FORT PICKETT*  NOT AVBL
CHASE CITY*    FAIR      77  66  69 CALM      30.17S
CLARKSVILLE*   FAIR      79  64  61 S6        30.17S
SOUTH HILL*    SUNNY     77  67  71 SW6       30.23S
LAWRENCEVILLE* FAIR      77  67  69 SW5       30.17S
EMPORIA*       PTSUNNY   77  70  78 S6        30.18F
$$

VAZ088>098-251500-
SOUTHEAST VIRGINIA

CITY           SKY/WX    TMP DP  RH WIND       PRES   REMARKS
NORFOLK        SUNNY     80  68  66 SW10      30.16F
VIRGINIA BEACH MOSUNNY   86  69  56 SW6       30.16S
NORFOLK NAVAL  MOSUNNY   81  68  64 SW9       30.18S
WEST POINT*    MOSUNNY   80  67  65 S7        30.17S
SALUDA*        FAIR      78  71  78 SW6       30.15S
NEWPORT NEWS   SUNNY     80  69  69 SW12      30.16S
LANGLEY AFB    MOSUNNY   81  69  65 SW12      30.16S
FORT EUSTIS    SUNNY     82  70  66 S7        30.14S
WILLIAMSBURG*  SUNNY     82  70  65 W7        30.17S
HR EXEC AP*    FAIR      81  72  74 SW7       30.19S
FRANKLIN*      MOSUNNY   80  68  68 SW9       30.18S
US460-WAKEFLD  MOSUNNY   77  69  76 S6        30.17S
$$

VAZ020-022-025-037-045-251500-
WEST CENTRAL AND SOUTHWEST VIRGINIA

CITY           SKY/WX    TMP DP  RH WIND       PRES   REMARKS
STAUNTON*      MOSUNNY   79  69  73 SW7       30.17F
WAYNESBORO*    FAIR      80  69  69 SW7       30.17F
HOT SPRINGS VA CLOUDY    68  68 100 W9        30.28S FOG
LYNCHBURG      MOSUNNY   76  68  76 SW8       30.18S
DANVILLE       SUNNY     78  67  68 W8        30.18S
SOUTH BOSTON*  FAIR      80  64  57 SW8       30.17S
MARTINSVILLE   CLOUDY    80  69  69 CALM      30.21S
ROANOKE        MOSUNNY   78  69  73 W6        30.19S
BLACKSBURG     SUNNY     73  69  87 W5        30.27S
DUBLIN*        MOSUNNY   77  70  79 SW5       30.26R
MARION*        PTSUNNY   73  69  87 W8        30.30S
HILLSVILLE*    SUNNY     71  68  90 W3        30.27R
RICHLANDS*     CLOUDY    70  69  96 W3        30.29R
WISE*          PTSUNNY   75  70  83 SW9       30.30S
ABINGDON*      CLOUDY    74  71  88 NW3       30.27S
$$

MDZ021>025-VAZ099-100-251500-
SOUTHERN MARYLAND AND THE DELMARVA PENINSULA

CITY           SKY/WX    TMP DP  RH WIND       PRES   REMARKS
PATUXENT RIVER PTSUNNY   79  66  64 VRB3      30.13S
BAY BRIDGE APT CLOUDY    81  68  65 S10G18    30.11S
LEONARDTOWN    SUNNY     77  64  65 SW7       30.14S
DOVER          SUNNY     79  71  76 S12       30.11S
GEORGETOWN     SUNNY     79  69  71 S9        30.15S
EASTON         MOSUNNY   81  72  74 SW12      30.16S
CAMBRIDGE      SUNNY     77  70  78 S3        30.13R
SALISBURY      SUNNY     78  70  76 SW9       30.15S
OCEAN CITY     MOSUNNY   81  69  67 SW9       30.15F
WALLOPS ISLAND PTSUNNY   81  67  62 SW9       30.16F
ACCOMACK*      SUNNY     80  68  66 CALM      30.16S
$$

NCZ012>017-030>032-251500-
NORTH CENTRAL AND EASTERN NORTH CAROLINA

CITY           SKY/WX    TMP DP  RH WIND       PRES   REMARKS
ROANOKE RAPIDS FAIR      75  70  83 SW6       30.18F
RALEIGH        MOSUNNY   79  65  62 SW7       30.19S
ELIZABETH CITY SUNNY     79  68  69 CALM      30.18S
AHOSKIE*       SUNNY     76  71  82 S3        30.18S
EDENTON*       SUNNY     82  66  58 S5        30.19S
CURRITUCK*       N/A     81  68  64 SW5       30.18F
KILL DEVIL HLS PTSUNNY   83  71  67 CALM      30.18R
MANTEO         MOSUNNY   79  67  66 SW3       30.19R
CAPE HATTERAS  SUNNY     83  68  60 VRB3      30.18S
TARBORO*       CLOUDY    78  72  81 CALM      30.19S
GOLDSBORO      SUNNY     81  72  74 W2        30.17S
WASHINGTON     SUNNY     80  70  70 CALM      30.18S
GREENVILLE     SUNNY     81  70  69 S3        30.19S
NEW BERN       SUNNY     82  67  60 E6        30.19S
WILMINGTON     SUNNY     82  71  69 NE5       30.17S
$$

VAZ048-251500-
ELSEWHERE

CITY           SKY/WX    TMP DP  RH WIND       PRES   REMARKS
HARRISBURG PA  CLOUDY    75  67  76 SE5       30.08F
BALTIMORE      PTSUNNY   79  67  66 SW7       30.10S
ANNAPOLIS      PTSUNNY   79  67  66 SW8       30.10S
ANDREWS AFB    CLOUDY    79  67  66 S10       30.11S
PHILADELPHIA   PTSUNNY   78  66  66 SW13      30.11F
HENDERSON NC   SUNNY     76  63  64 S7        30.19R
GREENSBORO     CLOUDY    79  65  62 W10       30.19S
ROCKY MOUNT    CLOUDY    75  70  84 S3        30.19S
$$

VAZ100-251500-
MARINE

STATION/POSITION TIME  TEMP    WIND        PRES    WAVE   SWELL
                       AIR SEA DIR/SP/G            HT/PER HT/PER
                 (UTC) (F)     (DEG/KT/KT) (MB)    (FT/S) (FT/S)
BRANDYWINE LGT   1300   73     190/ 10/ 11   N/A
CAPE MAY NJ      1300   74 75  200/  5/  7 1020.4F
LEWES DE         1300   76 73  200/  7/ 10 1020.6F
OCEAN-CITY-INLET 1300   75 75  210/  7/  9 1021.5F
WACHAPREAGUE VA  1300   79 78  230/  4/ 11 1021.3R
THOMAS POINT MD  1400   77 81  210/ 12/ 14 1021.0R
GOOSES REEF MD   1400   79 82  220/ 12/ 16 1020.4F   2/ 3
COVE POINT MD    1300   76     240/ 13/ 15 1020.6F
SOLOMONS ISLAND  1300   78 83  220/ 10/ 11   N/A
BISHOPS HEAD MD  1300   78 78  210/ 12/ 14 1020.8F
PINEY POINT MD   1300          240/  9/ 14   N/A
POTOMAC MD       1400   78 82  240/ 14/ 17 1019.5F   2/ 2
CAMBRIDGE MD     1300   77 83  200/  6/ 10 1019.4F
LEWISETTA VA     1300   76 81  230/ 11/ 14 1020.1F
RAPPAHANNOCK LGT 1300          210/ 12/ 13 1021.8S
STINGRAY PT      1400   79 83  180/ 10/ 12 1021.3R   1/ 2
YORK RVR RNG VA  1300   78     230/ 10/ 11 1020.7F
YORKTOWN VA      1300   77 82  210/  9/ 11 1020.6F
JAMESTOWN VA     1400   78 84  240/  6/  8   N/A     0
DOMINION TERM VA 1300   76     220/  8/  9 1021.5R
KIPTOPEKE VA     1300      78  230/  9/ 10   N/A
CHES BAY BRIDGE  1300   77 80  200/  9/ 11 1021.3F
CAPE HENRY VA    1300   78     200/  7/  9   N/A
WILLOUBY STN VA  1300   77     220/  8/  9   N/A
CAPE HENRY BUOY  1312      78                N/A     2/11   2/11
1ST LANDING BUOY 1400   79 79  240/  6/  8 1021.2F   1/ 5
CAPE CHARLES BUO 1326      78                N/A     3/11   2/11
OFFSHORE WE BUOY 1321      79                N/A     3/10   2/11
64NM E OF VA BCH 1350   79 81  230/  2/  4 1021.7S   3/10   3/10
DUCK PIER NC     1300   81 78  120/  3/  3 1021.1F
44100 DUCK FRF   1305      80                N/A     2/11   2/11
44056 DUCK FRF   1311      78                N/A     3/10   2/11
OREGON INLET NC  1300   80 80   30/  2/  4 1021.8R
HATTERAS NC      1300   80 79   20/  6/  9 1021.5R
DIAMOND SHLS NC  1350   81 84   70/  8/ 10 1021.8R   3/10   3/10
CAPE LOOKOUT NC  1400   81      40/  9/ 11 1021.5R
$$



USA.gov is the U.S. government's official web portal to all federal, state and local government web resources and services.